Location: Enikep?du
(16.5133°N, 80.7066°E)
Time: 11:04:10
(UTC+00:00)

Meteor 2-15 - Pass Details

Date: 15 May 2026
Orbit: 936 x 954 km, 82.5° (Epoch: 5 June)

Event Time Altitude Azimuth Distance (km) Brightness Sun altitude
Rises 22:52:29 0° 355° (N) 3,616 7.8 -17.1°
Reaches altitude 10° 22:54:59 10° 355° (N) 2,667 7.1 -16.6°
Maximum altitude 23:01:06 89° 268° (W) 948 4.4 -15.3°
Drops below altitude 10° 23:07:10 10° 177° (S) 2,651 6.6 -13.9°
Sets 23:09:38 0° 177° (S) 3,592 7.3 -13.4°
